Location: ??????
(38.0677°N, 22.9870°E)
Time: 03:22:05
(UTC+00:00)

Daily predictions for brighter satellites

Satellite Brightness Start Highest point End
(mag) Time Altitude Azimuth Time Altitude Azimuth Time Altitude Azimuth
CZ-2C R/B 4.3 00:00:29 10° NNE 00:05:50 37° E 00:07:24 32° SE
Cosmos 1850 Rocket 3.9 00:05:59 76° ESE 00:06:06 76° ESE 00:11:23 10° NNE
Cosmos 1709 Rocket 4.3 00:05:03 48° SE 00:06:36 63° E 00:12:52 10° NNE
Cosmos 2082 Rocket 3.5 00:07:01 27° WNW 00:07:51 28° WNW 00:12:45 10° N
SL-16 R/B 4.4 00:04:16 10° ESE 00:09:22 27° ENE 00:14:28 10° N
Cosmos 1741 Rocket 3.9 00:11:00 79° SE 00:11:11 80° ESE 00:16:26 10° NNE
Cosmos 1386 Rocket 4.5 00:10:39 61° SW 00:11:32 69° W 00:17:55 10° N
BREEZE-M DEB (TANK) 4.0 00:13:11 12° WNW 00:16:52 82° SW 00:32:18 10° SE
CZ-2D R/B 2.3 00:14:58 10° NNE 00:20:25 67° ESE 00:21:24 55° SSE
Cosmos 1782 Rocket 3.7 00:18:10 10° N 00:22:32 67° E 00:22:35 66° E
Cosmos 968 Rocket 3.4 00:22:13 66° SE 00:22:41 71° ESE 00:27:46 10° NNE
Cosmos 2237 4.4 00:17:25 10° NNW 00:23:10 71° ENE 00:25:53 32° SE
Cosmos 1908 Rocket 4.2 00:18:55 10° NNW 00:22:20 46° NW 00:22:20 46° NW
Cosmos 2360 Rocket 3.9 00:20:28 10° N 00:25:29 31° ENE 00:30:28 10° ESE
DELTA 2 R/B (1) 3.6 00:26:16 35° WNW 00:28:41 77° N 00:34:15 10° E
ATLAS CENTAUR R/B 4.3 00:19:03 10° NW 00:29:52 38° WSW 00:31:03 37° SW
Genesis I 3.9 00:31:57 47° NE 00:31:57 47° NE 00:34:34 10° NNE
MSX 3.7 00:25:56 10° NNE 00:31:41 84° WNW 00:32:57 57° SSW
Cosmos 1455 3.9 00:29:52 10° NNW 00:31:18 22° NNW 00:31:18 22° NNW
Resurs 1-4 Rocket 2.0 00:29:47 10° NNE 00:35:04 84° WNW 00:36:00 61° SSW
Cosmos 841 Rocket 3.4 00:30:42 10° NNW 00:35:54 68° WSW 00:36:21 64° SW
FENGYUN 3A 3.8 00:38:42 10° NNE 00:44:04 67° ESE 00:45:55 40° S
H-2A R/B 4.1 00:40:28 10° N 00:43:49 39° NW 00:43:49 39° NW
Cosmos 2278 3.6 00:39:43 10° NNW 00:45:23 65° WSW 00:46:49 48° SSW
OAO 3 Rocket 3.2 00:46:30 60° S 00:46:30 60° S 00:51:15 10° ESE
COBE Rocket 4.4 00:43:01 10° N 00:47:40 43° WNW 00:48:15 42° W
CZ-2C R/B 2.4 00:47:46 46° S 00:49:20 80° WSW 00:54:32 10° NNW
Cosmos 2242 Rocket 3.6 00:53:26 59° WSW 00:53:48 62° W 00:58:14 10° N
USA 234 3.6 00:56:30 37° SW 00:56:53 37° SW 01:02:53 10° WNW
Cosmos 2333 Rocket 3.0 00:52:44 10° NNW 00:58:20 52° ENE 01:03:54 10° SE
Cosmos 1825 4.2 00:59:33 14° SE 01:01:23 20° E 01:03:57 10° NE
BREEZE-M R/B 4.2 00:59:28 30° WSW 01:02:11 70° NNW 01:18:23 10° ENE
Cosmos 2098 Rocket 3.9 00:57:23 10° N 01:02:48 74° E 01:07:56 16° SSE
Cosmos 2322 Rocket 2.2 00:57:29 10° NNW 01:03:10 83° ENE 01:08:50 10° SSE
Meteor 2-5 Rocket 3.8 01:00:31 33° S 01:03:20 86° E 01:09:19 10° N
Cosmos 1814 Rocket 4.2 00:58:56 10° NNW 01:04:10 73° ENE 01:09:25 10° SSE
Cosmos 1892 4.2 01:05:20 19° SE 01:07:00 29° E 01:10:05 10° NNE
SL-27 R/B 3.2 01:08:51 32° NNW 01:08:51 32° NNW 01:10:46 10° N
Cosmos 2074 Rocket 4.3 01:04:02 20° S 01:08:25 65° E 01:14:33 10° NNE
SL-8 R/B 3.5 01:04:34 10° WNW 01:09:19 71° SW 01:14:05 10° SE
Cosmos 1242 Rocket 4.4 01:13:25 14° NW 01:13:25 14° NW 01:14:14 10° NNW
SL-4 R/B 2.1 01:12:39 48° SSW 01:13:43 70° SE 01:18:08 10° NE
Cosmos 1674 Rocket 3.9 01:15:23 26° SSE 01:17:49 64° E 01:22:13 10° NNE
Cosmos 1833 4.3 01:16:21 34° SW 01:18:50 66° WNW 01:24:28 10° NNE
Okean 2 Rocket 3.9 01:14:45 10° N 01:19:01 48° E 01:23:17 10° SSE
Cosmos 1300 Rocket 4.4 01:16:28 10° NNW 01:20:17 31° W 01:20:25 31° W
Cosmos 1408 4.1 01:21:25 18° NW 01:21:25 18° NW 01:22:52 10° NNW
ADEOS II 2.4 01:17:01 10° N 01:22:03 49° WNW 01:24:12 31° SW
Cosmos 2184 Rocket 4.0 01:21:56 20° S 01:26:28 87° E 01:32:45 10° N
IDEFIX/ARIANE 42P 4.1 01:22:50 10° NNW 01:26:44 22° WNW 01:28:28 18° W
Tiangong -1.6 01:28:20 41° SSE 01:28:30 41° SSE 01:31:26 10° E
Lacrosse 5 rocket 1.1 01:25:28 10° NW 01:29:25 61° SW 01:33:10 10° SSE
ALOS 2.2 01:25:20 10° N 01:29:55 69° WNW 01:32:15 29° SSW
Cosmos 839 Rocket 4.3 01:24:06 10° NNW 01:31:03 76° ENE 01:37:10 10° SE
Cosmos 1378 Rocket 3.5 01:33:03 30° SSW 01:35:03 65° W 01:39:20 10° N
Cosmos 2154 Rocket 4.0 01:32:22 15° S 01:37:41 87° E 01:43:54 10° N
Envisat 3.2 01:36:03 10° NNE 01:41:08 68° ESE 01:45:46 12° S
Cosmos 405 Rocket 2.9 01:37:36 10° N 01:41:12 66° E 01:44:50 10° SSE
SJ 16-02 2.7 01:39:50 20° W 01:41:12 24° WNW 01:44:43 10° N
CZ-2C R/B 3.3 01:36:53 10° NNE 01:41:25 44° E 01:45:47 10° S
Nadezhda 3 Rocket 4.4 01:35:05 10° N 01:41:26 68° E 01:47:41 10° SSE
ATLAS CENTAUR R/B 2.2 01:40:58 17° S 01:43:05 34° ESE 01:46:18 10° NE
ATLAS 2AS CENTAUR R/B 3.4 01:38:26 10° NNW 01:45:06 56° NE 01:51:33 10° SE
CZ-2C R/B 4.4 01:40:29 10° N 01:45:25 30° WNW 01:48:25 19° WSW
UNK 3.7 01:40:53 10° S 01:45:30 73° WSW 01:50:09 10° NNW
Okean 1 Rocket 3.6 01:41:30 10° N 01:45:47 59° E 01:50:01 10° SSE
SL-16 R/B 3.2 01:42:42 10° NW 01:47:11 25° WSW 01:49:03 21° SW
SL-16 R/B 2.8 01:46:39 10° S 01:52:36 47° W 01:58:38 10° NNW
Cosmos 2333 4.2 01:48:52 10° NNW 01:54:34 70° WSW 02:00:17 10° SSE
NOAA 11 4.3 01:50:58 10° NNE 01:56:31 82° ESE 02:01:59 10° SSW
CZ-2D R/B 4.0 01:56:36 10° NNW 01:59:48 16° WNW 02:02:41 11° W
Meteor 1-28 Rocket 4.5 01:59:45 19° WSW 02:00:16 20° W 02:02:56 10° NW
Cosmos 2219 Rocket 2.2 01:55:08 10° NNW 02:00:49 86° WSW 02:06:29 10° SSE
Thor Agena Rocket 3.9 02:01:24 10° NNE 02:06:37 66° ESE 02:11:49 10° S
COSMOS 2428 3.7 02:03:41 10° NNW 02:09:13 52° ENE 02:14:44 10° SE
Cosmos 2360 Rocket 2.8 02:04:21 10° NW 02:09:26 35° WSW 02:14:29 10° SSW
CZ-4 R/B 4.0 02:06:45 10° N 02:11:22 58° WNW 02:16:00 10° SSW
RESURS DK-1 2.8 02:09:44 10° NW 02:13:29 36° WSW 02:17:12 10° S
Resurs 1-4 Rocket 4.3 02:13:35 10° NW 02:13:59 10° WNW 02:14:24 10° WNW
DELTA 2 R/B (1) 3.6 02:09:36 10° WNW 02:15:07 65° SSW 02:20:36 10° ESE
Cosmos 1975 Rocket 3.6 02:14:36 10° S 02:18:49 58° E 02:23:03 10° NNE
Cosmos 2327 Rocket 4.5 02:14:00 10° SSW 02:20:10 71° W 02:26:18 10° N
SL-24 DEB 4.1 02:16:49 10° N 02:21:21 81° W 02:25:51 10° S
H-2A R/B 3.3 02:21:19 10° NNE 02:26:32 45° E 02:31:41 10° S
Geosat 4.1 02:22:39 10° S 02:27:33 56° WSW 02:32:29 10° NW
Cosmos 2227 Rocket 4.1 02:23:12 10° SSE 02:27:55 28° ESE 02:32:38 10° NE
OAO 3 Rocket 3.9 02:24:58 10° W 02:29:27 36° SSW 02:33:53 10° SE
Cosmos 1503 Rocket 4.1 02:24:15 10° SSW 02:29:35 82° WNW 02:34:59 10° NNE
ASTEX 1 3.5 02:26:49 10° S 02:31:40 59° W 02:36:32 10° NNW
PAYLOAD A 4.0 02:27:12 10° N 02:31:58 64° WNW 02:36:53 10° SSW
Cosmos 1825 3.7 02:33:14 10° WSW 02:35:31 17° WNW 02:37:49 10° NNW
Cosmos 2333 Rocket 3.5 02:38:03 10° NW 02:42:08 20° W 02:46:13 10° SW
Cosmos 1025 Rocket 3.8 02:39:26 10° SW 02:43:25 34° WNW 02:47:24 10° NNW
Cosmos 371 Rocket 3.7 02:39:33 10° SW 02:44:08 47° WNW 02:48:46 10° N
YAOGAN 6 3.4 02:42:09 10° NNW 02:45:03 28° WNW 02:47:55 10° SW
SL-8 Rocket 4.0 02:42:29 10° SSW 02:48:38 72° W 02:54:47 10° N
